Location: Grandview
(34.8900°N, 117.1058°W)
Time: 14:12:59
(UTC-07:00)

Vanguard 1 - All Passes

Search period start: 22 October 2017 00:00
Search period end: 01 November 2017 00:00
Orbit: 650 x 3834 km, 34.3° (Epoch: 21 October)

Date Brightness Start Highest point End Pass type
(mag) Time Alt. Az. Time Alt. Az. Time Alt. Az.
22 Oct - 01:00:43 10° WSW 01:12:51 79° SSE 01:34:23 10° E visible
22 Oct - 03:22:04 10° W 03:38:59 87° S 04:03:05 10° E visible
22 Oct - 05:45:29 10° WNW 06:06:19 66° SSW 06:28:20 10° SE visible
22 Oct - 08:12:35 10° W 08:31:15 32° SW 08:47:33 10° S daylight
22 Oct - 23:02:36 10° SW 23:11:23 49° SE 23:27:17 10° ENE visible
23 Oct - 01:21:45 10° WSW 01:34:20 85° SSE 01:56:25 10° E visible
23 Oct - 03:43:23 10° W 04:00:47 84° SSW 04:24:50 10° ESE visible
23 Oct - 06:07:04 10° WNW 06:27:43 58° SSW 06:49:04 10° SE visible
23 Oct - 08:35:47 10° W 08:51:58 24° SW 09:06:22 10° S daylight
23 Oct - 21:07:56 10° SSE 21:12:42 16° SE 21:19:05 10° E night (unlit)
23 Oct - 23:23:05 10° SW 23:32:14 60° SSE 23:49:18 10° ENE visible
24 Oct - 01:42:50 10° W 01:55:56 88° S 02:18:28 10° E visible
24 Oct - 04:04:42 10° W 04:22:33 79° SSW 04:46:25 10° ESE visible
24 Oct - 06:28:47 10° WNW 06:48:58 49° SW 07:09:28 10° SSE visible
24 Oct - 09:00:22 10° W 09:12:40 17° SW 09:23:55 10° SSW daylight
24 Oct - 21:26:55 10° S 21:32:58 25° SE 21:42:12 10° E night (unlit)
24 Oct - 23:43:46 10° WSW 23:53:16 70° SSE 00:11:16 10° ENE visible
25 Oct - 02:03:59 10° W 02:17:35 88° S 02:40:30 10° E visible
25 Oct - 04:26:01 10° WNW 04:44:12 72° SSW 05:07:46 10° ESE visible
25 Oct - 06:50:46 10° W 07:10:06 40° SW 07:29:27 10° SSE daylight
25 Oct - 09:29:49 10° WSW 09:33:23 11° SW 09:36:51 10° SW daylight
25 Oct - 21:46:41 10° SSW 21:53:23 34° SE 22:04:36 10° E night (unlit)
26 Oct - 00:04:37 10° WSW 00:14:29 79° SSE 00:33:15 10° E visible
26 Oct - 02:25:10 10° W 02:39:16 87° S 03:02:28 10° ESE visible
26 Oct - 04:47:24 10° WNW 05:05:45 65° SSW 05:28:51 10° SE visible
26 Oct - 07:13:10 10° W 07:31:06 32° SW 07:48:56 10° S daylight
26 Oct - 22:06:52 10° SW 22:13:59 45° SE 22:26:41 10° ENE night (unlit)
27 Oct - 00:25:35 10° WSW 00:35:51 85° S 00:55:17 10° E visible
27 Oct - 02:46:21 10° W 03:00:57 83° SSW 03:24:19 10° ESE visible
27 Oct - 05:08:52 10° WNW 05:27:12 56° SSW 05:49:37 10° SE visible
27 Oct - 07:36:15 10° W 07:52:03 24° SW 08:07:42 10° S daylight
27 Oct - 20:12:56 10° SSE 20:15:45 13° SE 20:19:08 10° ESE visible
27 Oct - 22:27:21 10° SW 22:34:45 57° SSE 22:48:36 10° ENE night (unlit)
28 Oct - 00:46:37 10° W 00:57:18 88° S 01:17:20 10° E visible
28 Oct - 03:07:33 10° W 03:22:34 77° SSW 03:45:59 10° ESE visible
28 Oct - 05:30:29 10° W 05:48:32 48° SW 06:10:02 10° SSE visible
28 Oct - 08:00:41 10° W 08:12:59 17° SW 08:25:10 10° SSW daylight
28 Oct - 20:31:29 10° S 20:36:05 20° SE 20:42:33 10° E visible
28 Oct - 22:48:01 10° WSW 22:55:43 69° SSE 23:10:29 10° E night (unlit)
29 Oct - 01:07:40 10° W 01:18:48 88° S 01:39:23 10° E visible
29 Oct - 03:28:46 10° W 03:44:09 70° SSW 04:07:24 10° SE visible
29 Oct - 05:52:21 10° W 06:09:47 39° SW 06:30:01 10° SSE visible
29 Oct - 08:29:38 10° WSW 08:33:58 11° SW 08:38:17 10° SW daylight
29 Oct - 20:51:09 10° SSW 20:56:29 30° SE 21:04:53 10° E visible
29 Oct - 23:08:50 10° WSW 23:16:50 78° SSE 23:32:23 10° E visible
30 Oct - 01:28:45 10° W 01:40:20 86° S 02:01:23 10° ESE visible
30 Oct - 03:50:02 10° WNW 04:05:39 62° SSW 04:28:32 10° SE visible
30 Oct - 06:14:39 10° W 06:30:59 31° SW 06:49:26 10° SSE visible
30 Oct - 21:11:19 10° SW 21:17:04 41° SE 21:26:51 10° E visible
30 Oct - 23:29:45 10° WSW 23:38:05 84° S 23:54:19 10° E visible
31 Oct - 01:49:51 10° W 02:01:51 81° SSW 02:23:16 10° ESE visible
31 Oct - 04:11:24 10° W 04:27:06 54° SSW 04:49:20 10° SE visible
31 Oct - 06:37:40 10° W 06:52:09 24° SW 07:08:05 10° S visible
31 Oct - 21:31:47 10° SW 21:37:49 54° SSE 21:48:38 10° E visible
